TimePST,TemperatureF,Dew PointF,Humidity,Sea Level PressureIn,VisibilityMPH,Wind Direction,Wind SpeedMPH,Gust SpeedMPH,PrecipitationIn,Events,Conditions,WindDirDegrees,DateUTC
12:56 AM,37.0,37.0,100,29.73,0.2,SSW,15.0,28.8,0.03,Fog-Rain,Rain,210,2012-11-21 08:56:00
1:36 AM,37.4,37.4,100,29.74,0.8,WSW,8.1,24.2,0.08,Rain,Light Rain,240,2012-11-21 09:36:00
1:52 AM,37.0,37.0,100,29.77,1.2,SW,12.7,23.0,0.08,Rain,Light Rain,220,2012-11-21 09:52:00
1:54 AM,37.4,37.4,100,29.75,2.0,WSW,8.1,23.0,0.00,Rain,Light Rain,250,2012-11-21 09:54:00
2:02 AM,35.6,35.6,100,29.76,3.0,SW,16.1,31.1,0.00,Rain,Light Rain,230,2012-11-21 10:02:00
2:09 AM,35.6,35.6,100,29.77,2.0,WSW,9.2,31.1,0.01,Rain,Rain,250,2012-11-21 10:09:00
2:21 AM,35.6,35.6,100,29.77,1.5,WSW,10.4,18.4,0.01,Rain,Rain,240,2012-11-21 10:21:00
2:29 AM,35.6,35.6,100,29.78,2.0,WSW,11.5,24.2,0.01,Rain,Light Rain,240,2012-11-21 10:29:00
2:36 AM,35.6,35.6,100,29.78,1.8,SW,9.2,24.2,0.02,Rain,Light Rain,230,2012-11-21 10:36:00
2:42 AM,35.6,35.6,100,29.78,3.0,SW,11.5,24.2,0.02,Rain,Light Rain,230,2012-11-21 10:42:00
2:48 AM,35.6,35.6,100,29.78,1.8,SW,9.2,18.4,0.02,Rain,Light Rain,220,2012-11-21 10:48:00
2:56 AM,36.0,36.0,100,29.81,1.0,Variable,5.8,16.1,0.02,Rain,Rain,0,2012-11-21 10:56:00
3:08 AM,35.6,35.6,100,29.80,1.0,NW,8.1,-,0.03,Rain,Rain,320,2012-11-21 11:08:00
3:20 AM,33.8,33.8,100,29.80,1.0,WSW,8.1,28.8,0.06,Snow,Light Snow,240,2012-11-21 11:20:00
3:31 AM,33.8,33.8,100,29.80,1.5,SW,8.1,18.4,0.06,Rain,Light Rain,230,2012-11-21 11:31:00
3:43 AM,33.8,33.8,100,29.80,2.0,Variable,6.9,-,0.07,Rain,Light Rain,0,2012-11-21 11:43:00
3:55 AM,34.0,34.0,100,29.84,5.0,WSW,13.8,28.8,0.07,Rain,Light Rain,240,2012-11-21 11:55:00
4:31 AM,33.8,33.8,100,29.83,3.0,SW,15.0,23.0,0.00,,Overcast,220,2012-11-21 12:31:00
4:36 AM,33.8,33.8,100,29.84,1.8,SW,10.4,23.0,0.00,,Overcast,230,2012-11-21 12:36:00
4:40 AM,33.8,33.8,100,29.83,2.0,SW,10.4,21.9,0.00,Rain,Light Rain,220,2012-11-21 12:40:00
4:46 AM,33.8,33.8,100,29.84,3.0,SW,11.5,25.3,0.00,Rain,Light Rain,230,2012-11-21 12:46:00
4:56 AM,33.1,33.1,100,29.89,5.0,SSW,11.5,23.0,0.00,,Overcast,210,2012-11-21 12:56:00
4:58 AM,33.8,33.8,100,29.85,2.0,SSW,10.4,23.0,N/A,,Overcast,200,2012-11-21 12:58:00
5:00 AM,33.8,33.8,100,29.85,1.0,South,10.4,23.0,0.00,Rain,Light Rain,190,2012-11-21 13:00:00
5:07 AM,33.8,33.8,100,29.85,0.5,SSW,13.8,21.9,0.00,Fog-Rain,Light Rain,200,2012-11-21 13:07:00
5:14 AM,33.8,33.8,100,29.86,0.5,SSW,13.8,21.9,0.00,Fog-Rain,Light Rain,200,2012-11-21 13:14:00
5:20 AM,33.8,33.8,100,29.86,0.2,SSW,12.7,21.9,0.00,Fog-Rain,Light Rain,210,2012-11-21 13:20:00
5:31 AM,33.8,33.8,100,29.87,0.2,SSW,12.7,21.9,0.00,Fog-Rain,Light Rain,200,2012-11-21 13:31:00
5:56 AM,33.1,33.1,100,29.92,0.2,South,15.0,23.0,0.00,Fog-Snow,Light Snow,180,2012-11-21 13:56:00
6:23 AM,32.0,32.0,100,29.91,0.2,SW,6.9,16.1,0.02,Fog-Snow,Snow,230,2012-11-21 14:23:00
6:54 AM,32.0,32.0,100,29.97,0.8,SW,8.1,-,0.11,Snow,Light Snow,230,2012-11-21 14:54:00
6:58 AM,32.0,32.0,100,29.93,1.5,West,8.1,18.4,0.00,Snow,Light Snow,260,2012-11-21 14:58:00
7:02 AM,32.0,32.0,100,29.94,4.0,SW,11.5,18.4,0.00,,Overcast,230,2012-11-21 15:02:00
7:06 AM,32.0,32.0,100,29.94,1.8,SW,10.4,18.4,0.00,,Overcast,230,2012-11-21 15:06:00
7:12 AM,32.0,32.0,100,29.94,1.0,SW,9.2,17.3,0.00,,Overcast,230,2012-11-21 15:12:00
7:16 AM,32.0,32.0,100,29.95,1.5,Variable,6.9,-,0.00,,Overcast,0,2012-11-21 15:16:00
7:23 AM,32.0,32.0,100,29.95,3.0,Variable,6.9,-,0.00,,Overcast,0,2012-11-21 15:23:00
7:56 AM,32.0,32.0,100,30.01,3.0,Variable,5.8,24.2,0.00,Snow,Light Snow,0,2012-11-21 15:56:00
8:01 AM,32.0,32.0,100,29.97,1.5,SW,13.8,24.2,0.00,Snow,Light Snow,220,2012-11-21 16:01:00
8:03 AM,32.0,32.0,100,29.97,1.2,Variable,5.8,24.2,0.00,Snow,Light Snow,0,2012-11-21 16:03:00
8:10 AM,32.0,32.0,100,29.98,0.5,SW,11.5,20.7,0.00,Fog-Snow,Light Snow,230,2012-11-21 16:10:00
8:18 AM,32.0,32.0,100,29.98,0.2,Variable,6.9,19.6,0.00,Fog-Snow,Light Snow,0,2012-11-21 16:18:00
8:35 AM,32.0,32.0,100,29.99,0.8,Variable,6.9,-,0.01,,Overcast,0,2012-11-21 16:35:00
8:43 AM,32.0,32.0,100,29.99,1.2,SSW,9.2,-,0.01,,Overcast,210,2012-11-21 16:43:00
8:45 AM,32.0,32.0,100,29.99,2.0,SSW,9.2,-,0.01,,Overcast,210,2012-11-21 16:45:00
8:52 AM,32.0,32.0,100,30.00,4.0,SSW,11.5,18.4,0.01,,Mostly Cloudy,210,2012-11-21 16:52:00
8:56 AM,32.0,32.0,100,30.04,8.0,SSW,11.5,18.4,0.01,,Mostly Cloudy,200,2012-11-21 16:56:00
9:13 AM,32.0,32.0,100,30.01,1.5,SSW,12.7,19.6,N/A,,Mostly Cloudy,210,2012-11-21 17:13:00
9:15 AM,32.0,32.0,100,30.01,0.8,SSW,11.5,18.4,N/A,,Mostly Cloudy,210,2012-11-21 17:15:00
9:29 AM,32.0,32.0,100,30.02,0.2,South,12.7,18.4,N/A,Fog,Fog,180,2012-11-21 17:29:00
9:54 AM,33.8,33.8,100,30.04,0.2,South,15.0,18.4,N/A,Fog,Fog,180,2012-11-21 17:54:00
9:56 AM,33.1,33.1,100,30.08,0.2,South,13.8,18.4,N/A,Fog,Fog,180,2012-11-21 17:56:00
10:56 AM,34.0,34.0,100,30.10,0.2,SSW,11.5,17.3,N/A,Fog,Fog,210,2012-11-21 18:56:00
11:56 AM,35.1,35.1,100,30.11,0.2,SSW,9.2,-,N/A,Fog,Fog,200,2012-11-21 19:56:00
12:18 PM,33.8,33.8,100,30.07,0.2,SW,11.5,25.3,0.00,Fog-Rain,Light Rain,220,2012-11-21 20:18:00
12:25 PM,33.8,33.8,100,30.07,0.5,SSW,9.2,24.2,0.00,Fog-Rain,Light Rain,200,2012-11-21 20:25:00
12:29 PM,33.8,33.8,100,30.07,4.0,SW,11.5,24.2,0.00,,Mostly Cloudy,220,2012-11-21 20:29:00
12:47 PM,33.8,33.8,100,30.07,2.5,SSW,12.7,20.7,0.00,,Overcast,200,2012-11-21 20:47:00
12:50 PM,33.8,33.8,100,30.07,1.0,South,13.8,21.9,0.00,,Mostly Cloudy,190,2012-11-21 20:50:00
12:52 PM,33.8,33.8,100,30.07,0.8,South,12.7,21.9,0.00,,Mostly Cloudy,190,2012-11-21 20:52:00
12:56 PM,34.0,34.0,100,30.12,0.2,SSW,17.3,21.9,0.00,Fog,Fog,200,2012-11-21 20:56:00
1:11 PM,33.8,33.8,100,30.08,0.2,SSW,11.5,20.7,N/A,Fog,Fog,210,2012-11-21 21:11:00
1:19 PM,33.8,33.8,100,30.08,0.2,SSW,11.5,24.2,N/A,Fog,Fog,200,2012-11-21 21:19:00
1:56 PM,35.1,35.1,100,30.14,0.2,SSW,11.5,23.0,N/A,Fog,Fog,210,2012-11-21 21:56:00
2:17 PM,35.6,35.6,100,30.10,1.0,SSW,10.4,19.6,N/A,,Overcast,210,2012-11-21 22:17:00
2:19 PM,35.6,35.6,100,30.10,2.5,SW,11.5,19.6,N/A,,Overcast,220,2012-11-21 22:19:00
2:24 PM,35.6,35.6,100,30.10,1.8,South,9.2,19.6,N/A,,Overcast,190,2012-11-21 22:24:00
2:26 PM,35.6,35.6,100,30.11,0.5,South,9.2,19.6,N/A,Fog,Fog,190,2012-11-21 22:26:00
2:34 PM,35.6,35.6,100,30.11,0.2,SSW,11.5,17.3,N/A,Fog,Fog,210,2012-11-21 22:34:00
2:42 PM,33.8,33.8,100,30.11,1.0,SSW,10.4,21.9,N/A,,Overcast,210,2012-11-21 22:42:00
2:46 PM,33.8,33.8,100,30.12,0.2,SSW,8.1,18.4,N/A,Fog,Fog,200,2012-11-21 22:46:00
2:56 PM,34.0,34.0,100,30.18,0.2,SSW,10.4,-,N/A,Fog,Fog,210,2012-11-21 22:56:00
3:39 PM,33.8,33.8,100,30.14,0.2,SW,6.9,-,0.00,Fog-Rain,Light Rain,220,2012-11-21 23:39:00
3:56 PM,34.0,34.0,100,30.21,0.2,SSW,5.8,-,0.00,Fog,Fog,200,2012-11-21 23:56:00
4:43 PM,33.8,33.8,100,30.16,1.5,SSW,8.1,-,N/A,,Overcast,210,2012-11-22 00:43:00
4:45 PM,33.8,33.8,100,30.16,0.8,SSW,6.9,-,N/A,,Overcast,200,2012-11-22 00:45:00
4:50 PM,33.8,33.8,100,30.16,0.2,SSW,8.1,-,N/A,Fog,Fog,210,2012-11-22 00:50:00
4:56 PM,33.1,33.1,100,30.24,0.5,SSW,6.9,-,N/A,Fog,Fog,200,2012-11-22 00:56:00
5:00 PM,33.8,33.8,100,30.16,3.0,SSW,8.1,-,N/A,,Overcast,200,2012-11-22 01:00:00
5:11 PM,33.8,33.8,100,30.17,1.8,South,6.9,-,N/A,,Overcast,190,2012-11-22 01:11:00
5:15 PM,33.8,33.8,100,30.17,0.8,South,6.9,-,N/A,,Overcast,190,2012-11-22 01:15:00
5:32 PM,33.8,33.8,100,30.17,1.5,South,6.9,-,N/A,,Mostly Cloudy,190,2012-11-22 01:32:00
5:36 PM,33.8,33.8,100,30.17,4.0,SSW,6.9,-,N/A,,Mostly Cloudy,200,2012-11-22 01:36:00
5:42 PM,33.8,33.8,100,30.18,10.0,South,8.1,-,N/A,,Scattered Clouds,190,2012-11-22 01:42:00
6:18 PM,33.8,33.8,100,30.19,1.8,South,6.9,-,N/A,,Overcast,180,2012-11-22 02:18:00
6:24 PM,33.8,33.8,100,30.19,0.8,South,8.1,-,N/A,,Overcast,180,2012-11-22 02:24:00
6:56 PM,34.0,34.0,100,30.27,0.5,South,8.1,-,N/A,Fog,Fog,180,2012-11-22 02:56:00
7:03 PM,33.8,33.8,100,30.20,0.2,South,8.1,-,N/A,Fog,Fog,180,2012-11-22 03:03:00
7:56 PM,33.1,33.1,100,30.28,0.2,South,6.9,-,0.00,Fog,Fog,180,2012-11-22 03:56:00
8:05 PM,33.8,33.8,100,30.21,0.5,South,5.8,-,N/A,Fog,Fog,170,2012-11-22 04:05:00
8:17 PM,33.8,33.8,100,30.20,1.0,SSE,8.1,-,N/A,,Overcast,160,2012-11-22 04:17:00
8:25 PM,33.8,33.8,100,30.21,0.5,South,6.9,-,N/A,Fog,Fog,180,2012-11-22 04:25:00
8:42 PM,33.8,33.8,100,30.21,1.0,South,6.9,-,N/A,,Overcast,190,2012-11-22 04:42:00
8:56 PM,33.1,33.1,100,30.28,4.0,SSW,9.2,-,N/A,,Overcast,200,2012-11-22 04:56:00
9:56 PM,33.1,32.0,96,30.30,10.0,SSW,8.1,-,N/A,,Mostly Cloudy,210,2012-11-22 05:56:00
10:07 PM,33.8,32.0,93,30.23,3.0,South,6.9,-,N/A,,Mostly Cloudy,190,2012-11-22 06:07:00
10:16 PM,33.8,32.0,93,30.22,1.2,South,8.1,-,N/A,,Mostly Cloudy,180,2012-11-22 06:16:00
10:25 PM,33.8,32.0,93,30.22,0.5,South,8.1,-,N/A,Fog,Fog,180,2012-11-22 06:25:00
10:32 PM,33.8,32.0,93,30.22,0.2,South,8.1,-,N/A,Fog,Fog,180,2012-11-22 06:32:00
10:39 PM,33.8,32.0,93,30.22,0.5,South,6.9,-,N/A,Fog,Fog,180,2012-11-22 06:39:00
10:56 PM,33.1,33.1,100,30.29,0.2,South,6.9,-,N/A,Fog,Fog,170,2012-11-22 06:56:00
11:32 PM,33.8,32.0,93,30.22,0.5,SSE,9.2,-,N/A,Fog,Fog,160,2012-11-22 07:32:00
11:56 PM,33.1,32.0,96,30.29,0.5,SE,10.4,-,N/A,Fog,Fog,140,2012-11-22 07:56:00